(°C)
(°C)
S
SSW
SW
WSW
WSW
WSW
W
(km/h)
14-30
15-31
15-31
16-31
15-31
13-29
12-28
(mm)
0
0
0
0
0
0
0
(%)
30
27
25
22
15
7
0

Sonnenhöhe

/ 24.5°
sun-icon
UV 2
06:58
16:48
Letztes Viertel (269°)
00:00
10:57

METAR für Barnstable (KHYA)

Zeit Bedingungen Temperatur/
Taupunkt
Wind Sichtweite Wetter Wolken Druck Änderung Roh
MVFR 5°C / 1.7°C 190º 8kt >10km 0.13mm precipitation Few Clouds 2200ft
Overcast 2600ft
1012 - KHYA 251456Z 19008KT 10SM FEW022 OVC026 05/02 A2989 RMK AO2 RAE17 SLP122 P0000 60000 T00500017 53004
MVFR 5°C / 1.7°C variable 6kt >10km Light Rain 0.13mm precipitation Overcast 2500ft 1011 - KHYA 251356Z VRB06KT 8SM -RA OVC025 05/02 A2988 RMK AO2 RAB28 SLP119 P0000 T00500017
VFR 3.9°C / 1.1°C 140º 6kt >10km - Broken Clouds 3400ft
Broken Clouds 4100ft
Overcast 4900ft
1011 - KHYA 251256Z 14006KT 10SM BKN034 BKN041 OVC049 04/01 A2987 RMK AO2 SLP116 T00390011
VFR 2.2°C / 0°C 120º 3kt >10km 0.13mm precipitation Scattered Clouds 2900ft
Broken Clouds 3900ft
Overcast 10000ft
1011 - KHYA 251156Z 12003KT 8SM SCT029 BKN039 OVC100 02/00 A2987 RMK AO2 UPE36 SLP118 P0000 60000 T00220000 10039 20011 55002
MVFR 1.7°C / 0°C 150º 3kt >10km Unknown Precipitation 0.13mm precipitation Scattered Clouds 1800ft
Broken Clouds 2300ft
Overcast 4700ft
1011 - KHYA 251056Z 15003KT 7SM UP SCT018 BKN023 OVC047 02/00 A2987 RMK AO2 UPB36 SLP117 P0000 T00170000
VFR 1.7°C / -0.6°C 130º 3kt >10km 0.13mm precipitation Overcast 5500ft 1011 - KHYA 250956Z AUTO 13003KT 7SM OVC055 02/M01 A2987 RMK AO2 UPB05E36SNE05 SLP116 P0000 T00171006
MVFR 1.1°C / -1.1°C variable 0kt 8000m Light Snow Mist 0.13mm precipitation Overcast 4000ft 1012 - KHYA 250856Z AUTO 00000KT 5SM -SN BR OVC040 01/M01 A2988 RMK AO2 SLP120 P0000 60000 T00111011 58008
MVFR 1.1°C / -1.7°C variable 0kt 4800m Light Snow 0.13mm precipitation Overcast 3800ft - KHYA 250823Z AUTO 00000KT 3SM -SN OVC038 01/M02 A2989 RMK AO2 P0000 T00111017
IFR 1.1°C / -1.7°C variable 0kt 3200m Light Snow 0.13mm precipitation Overcast 3000ft - KHYA 250759Z AUTO 00000KT 2SM -SN OVC030 01/M02 A2990 RMK AO2 P0000 T00111017
IFR 1°C / -2°C variable 0kt 2800m Light Snow 0.13mm precipitation Overcast 2600ft - KHYA 250752Z AUTO 00000KT 1 3/4SM -SN OVC026 01/M02 A2990 RMK AO2 P0000
VFR 2.2°C / -2.2°C 270º 3kt >10km Light Snow 0.13mm precipitation Few Clouds 3000ft
Scattered Clouds 3500ft
Overcast 4200ft
1012 - KHYA 250656Z AUTO 27003KT 7SM -SN FEW030 SCT035 OVC042 02/M02 A2991 RMK AO2 SNB34 SLP129 P0000 T00221022
VFR 3.9°C / -1.1°C 200º 5kt >10km - Broken Clouds 3300ft
Overcast 4500ft
1012 - KHYA 250556Z AUTO 20005KT 10SM BKN033 OVC045 04/M01 A2989 RMK AO2 SLP124 T00391011 10039 21039 55001
VFR 2.8°C / -2.2°C 160º 5kt >10km - Overcast 10000ft 1012 - KHYA 250456Z AUTO 16005KT 10SM OVC100 03/M02 A2989 RMK AO2 SLP122 T00281022 400281039
VFR -0.6°C / -3.9°C variable 0kt >10km - Broken Clouds 3100ft
Broken Clouds 4400ft
Overcast 8500ft
1012 - KHYA 250356Z AUTO 00000KT 10SM BKN031 BKN044 OVC085 M01/M04 A2988 RMK AO2 SLP121 T10061039
VFR -2.2°C / -5.6°C variable 0kt >10km - Broken Clouds 3700ft
Broken Clouds 5000ft
1012 - KHYA 250256Z 00000KT 10SM BKN037 BKN050 M02/M06 A2990 RMK AO2 SLP125 T10221056 58009
VFR -3.3°C / -6.7°C variable 0kt >10km - Few Clouds 5000ft 1013 - KHYA 250156Z 00000KT 10SM FEW050 M03/M07 A2991 RMK AO2 SLP130 T10331067
VFR -2.2°C / -6.1°C variable 0kt >10km - Overcast 5000ft 1013 - KHYA 250056Z 00000KT 10SM OVC050 M02/M06 A2992 RMK AO2 SLP133 T10221061
VFR -2.2°C / -5.6°C variable 0kt >10km - Overcast 5000ft 1013 - KHYA 242356Z 00000KT 10SM OVC050 M02/M06 A2992 RMK AO2 SLP135 T10221056 10017 21033 53015
VFR -3.3°C / -7.2°C variable 0kt >10km - Few Clouds 4900ft 1012 - KHYA 242256Z 00000KT 10SM FEW049 M03/M07 A2991 RMK AO2 SLP129 T10331072
VFR -1.1°C / -6.7°C variable 0kt >10km - Clear 1011 - KHYA 242156Z 00000KT 10SM CLR M01/M07 A2988 RMK AO2 SLP119 T10111067
VFR 0.6°C / -5.6°C 10º 5kt >10km - Clear 1012 - KHYA 242056Z 01005KT 10SM CLR 01/M06 A2988 RMK AO2 SLP120 T00061056 50004
VFR 1.1°C / -5.6°C 340º 6kt >10km - Few Clouds 2000ft 1012 - KHYA 241956Z 34006KT 10SM FEW020 01/M06 A2989 RMK AO2 SLP122 T00111056
VFR 0.6°C / -6.1°C 340º 8kt >10km - Scattered Clouds 1900ft 1011 - KHYA 241856Z 34008KT 10SM SCT019 01/M06 A2987 RMK AO2 SLP116 T00061061
VFR 0.6°C / -5.6°C 10º 10kt >10km - Scattered Clouds 1900ft 1011 - KHYA 241756Z 01010KT 10SM SCT019 01/M06 A2987 RMK AO2 SLP115 T00061056 10022 21022 56009

MVFR

5°C / 1.7°C

[Mehr]
Wind 190º 8kt
Sichtweite >10km
Wetter 0.13mm precipitation
Wolken Few Clouds 2200ft
Overcast 2600ft
Druck 1012
Änderung -
Roh KHYA 251456Z 19008KT 10SM FEW022 OVC026 05/02 A2989 RMK AO2 RAE17 SLP122 P0000 60000 T00500017 53004

MVFR

5°C / 1.7°C

[Mehr]
Wind variable 6kt
Sichtweite >10km
Wetter Light Rain 0.13mm precipitation
Wolken Overcast 2500ft
Druck 1011
Änderung -
Roh KHYA 251356Z VRB06KT 8SM -RA OVC025 05/02 A2988 RMK AO2 RAB28 SLP119 P0000 T00500017

VFR

3.9°C / 1.1°C

[Mehr]
Wind 140º 6kt
Sichtweite >10km
Wetter -
Wolken Broken Clouds 3400ft
Broken Clouds 4100ft
Overcast 4900ft
Druck 1011
Änderung -
Roh KHYA 251256Z 14006KT 10SM BKN034 BKN041 OVC049 04/01 A2987 RMK AO2 SLP116 T00390011

VFR

2.2°C / 0°C

[Mehr]
Wind 120º 3kt
Sichtweite >10km
Wetter 0.13mm precipitation
Wolken Scattered Clouds 2900ft
Broken Clouds 3900ft
Overcast 10000ft
Druck 1011
Änderung -
Roh KHYA 251156Z 12003KT 8SM SCT029 BKN039 OVC100 02/00 A2987 RMK AO2 UPE36 SLP118 P0000 60000 T00220000 10039 20011 55002

MVFR

1.7°C / 0°C

[Mehr]
Wind 150º 3kt
Sichtweite >10km
Wetter Unknown Precipitation 0.13mm precipitation
Wolken Scattered Clouds 1800ft
Broken Clouds 2300ft
Overcast 4700ft
Druck 1011
Änderung -
Roh KHYA 251056Z 15003KT 7SM UP SCT018 BKN023 OVC047 02/00 A2987 RMK AO2 UPB36 SLP117 P0000 T00170000

VFR

1.7°C / -0.6°C

[Mehr]
Wind 130º 3kt
Sichtweite >10km
Wetter 0.13mm precipitation
Wolken Overcast 5500ft
Druck 1011
Änderung -
Roh KHYA 250956Z AUTO 13003KT 7SM OVC055 02/M01 A2987 RMK AO2 UPB05E36SNE05 SLP116 P0000 T00171006

MVFR

1.1°C / -1.1°C

[Mehr]
Wind variable 0kt
Sichtweite 8000m
Wetter Light Snow Mist 0.13mm precipitation
Wolken Overcast 4000ft
Druck 1012
Änderung -
Roh KHYA 250856Z AUTO 00000KT 5SM -SN BR OVC040 01/M01 A2988 RMK AO2 SLP120 P0000 60000 T00111011 58008

MVFR

1.1°C / -1.7°C

[Mehr]
Wind variable 0kt
Sichtweite 4800m
Wetter Light Snow 0.13mm precipitation
Wolken Overcast 3800ft
Druck
Änderung -
Roh KHYA 250823Z AUTO 00000KT 3SM -SN OVC038 01/M02 A2989 RMK AO2 P0000 T00111017

IFR

1.1°C / -1.7°C

[Mehr]
Wind variable 0kt
Sichtweite 3200m
Wetter Light Snow 0.13mm precipitation
Wolken Overcast 3000ft
Druck
Änderung -
Roh KHYA 250759Z AUTO 00000KT 2SM -SN OVC030 01/M02 A2990 RMK AO2 P0000 T00111017

IFR

1°C / -2°C

[Mehr]
Wind variable 0kt
Sichtweite 2800m
Wetter Light Snow 0.13mm precipitation
Wolken Overcast 2600ft
Druck
Änderung -
Roh KHYA 250752Z AUTO 00000KT 1 3/4SM -SN OVC026 01/M02 A2990 RMK AO2 P0000

VFR

2.2°C / -2.2°C

[Mehr]
Wind 270º 3kt
Sichtweite >10km
Wetter Light Snow 0.13mm precipitation
Wolken Few Clouds 3000ft
Scattered Clouds 3500ft
Overcast 4200ft
Druck 1012
Änderung -
Roh KHYA 250656Z AUTO 27003KT 7SM -SN FEW030 SCT035 OVC042 02/M02 A2991 RMK AO2 SNB34 SLP129 P0000 T00221022

VFR

3.9°C / -1.1°C

[Mehr]
Wind 200º 5kt
Sichtweite >10km
Wetter -
Wolken Broken Clouds 3300ft
Overcast 4500ft
Druck 1012
Änderung -
Roh KHYA 250556Z AUTO 20005KT 10SM BKN033 OVC045 04/M01 A2989 RMK AO2 SLP124 T00391011 10039 21039 55001

VFR

2.8°C / -2.2°C

[Mehr]
Wind 160º 5kt
Sichtweite >10km
Wetter -
Wolken Overcast 10000ft
Druck 1012
Änderung -
Roh KHYA 250456Z AUTO 16005KT 10SM OVC100 03/M02 A2989 RMK AO2 SLP122 T00281022 400281039

VFR

-0.6°C / -3.9°C

[Mehr]
Wind variable 0kt
Sichtweite >10km
Wetter -
Wolken Broken Clouds 3100ft
Broken Clouds 4400ft
Overcast 8500ft
Druck 1012
Änderung -
Roh KHYA 250356Z AUTO 00000KT 10SM BKN031 BKN044 OVC085 M01/M04 A2988 RMK AO2 SLP121 T10061039

VFR

-2.2°C / -5.6°C

[Mehr]
Wind variable 0kt
Sichtweite >10km
Wetter -
Wolken Broken Clouds 3700ft
Broken Clouds 5000ft
Druck 1012
Änderung -
Roh KHYA 250256Z 00000KT 10SM BKN037 BKN050 M02/M06 A2990 RMK AO2 SLP125 T10221056 58009

VFR

-3.3°C / -6.7°C

[Mehr]
Wind variable 0kt
Sichtweite >10km
Wetter -
Wolken Few Clouds 5000ft
Druck 1013
Änderung -
Roh KHYA 250156Z 00000KT 10SM FEW050 M03/M07 A2991 RMK AO2 SLP130 T10331067

VFR

-2.2°C / -6.1°C

[Mehr]
Wind variable 0kt
Sichtweite >10km
Wetter -
Wolken Overcast 5000ft
Druck 1013
Änderung -
Roh KHYA 250056Z 00000KT 10SM OVC050 M02/M06 A2992 RMK AO2 SLP133 T10221061

VFR

-2.2°C / -5.6°C

[Mehr]
Wind variable 0kt
Sichtweite >10km
Wetter -
Wolken Overcast 5000ft
Druck 1013
Änderung -
Roh KHYA 242356Z 00000KT 10SM OVC050 M02/M06 A2992 RMK AO2 SLP135 T10221056 10017 21033 53015

VFR

-3.3°C / -7.2°C

[Mehr]
Wind variable 0kt
Sichtweite >10km
Wetter -
Wolken Few Clouds 4900ft
Druck 1012
Änderung -
Roh KHYA 242256Z 00000KT 10SM FEW049 M03/M07 A2991 RMK AO2 SLP129 T10331072

VFR

-1.1°C / -6.7°C

[Mehr]
Wind variable 0kt
Sichtweite >10km
Wetter -
Wolken Clear
Druck 1011
Änderung -
Roh KHYA 242156Z 00000KT 10SM CLR M01/M07 A2988 RMK AO2 SLP119 T10111067

VFR

0.6°C / -5.6°C

[Mehr]
Wind 10º 5kt
Sichtweite >10km
Wetter -
Wolken Clear
Druck 1012
Änderung -
Roh KHYA 242056Z 01005KT 10SM CLR 01/M06 A2988 RMK AO2 SLP120 T00061056 50004

VFR

1.1°C / -5.6°C

[Mehr]
Wind 340º 6kt
Sichtweite >10km
Wetter -
Wolken Few Clouds 2000ft
Druck 1012
Änderung -
Roh KHYA 241956Z 34006KT 10SM FEW020 01/M06 A2989 RMK AO2 SLP122 T00111056

VFR

0.6°C / -6.1°C

[Mehr]
Wind 340º 8kt
Sichtweite >10km
Wetter -
Wolken Scattered Clouds 1900ft
Druck 1011
Änderung -
Roh KHYA 241856Z 34008KT 10SM SCT019 01/M06 A2987 RMK AO2 SLP116 T00061061

VFR

0.6°C / -5.6°C

[Mehr]
Wind 10º 10kt
Sichtweite >10km
Wetter -
Wolken Scattered Clouds 1900ft
Druck 1011
Änderung -
Roh KHYA 241756Z 01010KT 10SM SCT019 01/M06 A2987 RMK AO2 SLP115 T00061056 10022 21022 56009

TAF für Barnstable (KHYA)

From till


From till Wind 170º 4kt. Visibility 10km or more. Light Snow . Overcast 2500ft.
From till Wind 190º 11kt. Visibility 10km or more. Overcast 3500ft.
From till Wind 230º 11kt. Gust 18kt. Visibility 10km or more. Broken Clouds 4500ft.
From till Wind 300º 10kt. Gust 19kt. Visibility 10km or more. Scattered Clouds 20000ft.
From till Wind 320º 8kt. Visibility 10km or more. Few Clouds 25000ft.

Roh: KHYA 251129Z 2512/2612 17004KT P6SM -SN OVC025 FM251500 19011KT P6SM OVC035 FM251700 23011G18KT P6SM BKN045 FM260000 30010G19KT P6SM SCT200 FM260600 32008KT P6SM FEW250

Radar- und Niederschlags-Nowcast für Barnstable

Nieselregen
Leicht
Moderat
Stark
Sehr schwer
Hagel

Die Ortsmarkierung zeigt auf Barnstable. Diese Animation zeigt das Niederschlagsradar der letzten Stunde, sowie eine 1h Vorhersage. Nieselregen und leichter Schneefall können für das Radar unsichtbar sein. Die Niederschlagsintensität ist farbcodiert von Hellblau bis Orange.

Aktuelle Satellitenbilder für Barnstable, USA

Die Standortmarkierung ist platziert auf Barnstable. [Mehr]

Das Echtzeit-Satellitenbild kombiniert sichtbares Licht während des Tages mit Infrarotstrahlung während der Nacht. Nachts ist das Bild nicht dunkel, da Infrarotstrahlung Temperaturunterschiede erkennen kann. Leider sind niedrige Wolken und Nebel nur schwer von den Bodentemperaturen zu unterscheiden und können daher nachts fast unsichtbar sein. Meteosat-Satellitenbilder für Europa werden alle 5 Minuten in Echtzeit aktualisiert. Die Bilder GOES-16 / GOES-17 (Nord- und Südamerika) und Himawari (Asien) werden alle 10 Minuten aktualisiert.